Regional Weather Roundup
Issued by NWS Little Rock, AR

Home | Current Version | Previous Version | Graphics & Text | Print | Product List | Glossary On
Versions: 1 2 3 4 5 6 7 8 9 10 11 12 13 14 15 16 17 18 19 20 21 22 23 24 25 26 27 28 29 30 31 32 33 34 35 36 37 38 39 40 41 42 43 44 45 46 47 48
000
ASUS44 KLZK 030805
RWRLZK

WEATHER ROUNDUP FOR ARKANSAS
NATIONAL WEATHER SERVICE LITTLE ROCK AR
300 AM CDT THU SEP 03 2015

NOTE: "FAIR" INDICATES FEW OR NO CLOUDS BELOW 12,000 FEET WITH NO
SIGNIFICANT WEATHER AND/OR OBSTRUCTIONS TO VISIBILITY.

ARZ001-003-010-029-030900-
NORTHWEST ARKANSAS

CITY           SKY/WX    TMP DP  RH WIND       PRES   REMARKS
FAYETTEVILLE   CLEAR     68  67  96 SW3       30.02S
FORT SMITH     CLEAR     74  67  78 E5        29.98S
HARRISON       CLEAR     68  66  93 SE3       30.03S
BENTONVILLE    CLEAR     70  64  83 CALM      30.02S
ROGERS         CLEAR     70  67  90 S5        30.03S
SILOAM SPGS    CLEAR     70  61  73 SE6       30.00S
HIGHFILL       CLEAR     70  68  93 CALM      30.01S
$$

ARZ004-005-016-030900-
NORTH CENTRAL ARKANSAS

CITY           SKY/WX    TMP DP  RH WIND       PRES   REMARKS
BATESVILLE     CLEAR     72  68  88 CALM      30.00S
FLIPPIN        CLEAR     70  63  78 CALM      29.99S
MTN HOME       CLEAR     68  66  93 CALM      30.01S
$$

ARZ040-041-030900-
WEST CENTRAL ARKANSAS

CITY           SKY/WX    TMP DP  RH WIND       PRES   REMARKS
MENA           CLEAR     70  68  94 CALM      30.02S
MOUNT IDA      CLEAR     68  66  93 CALM      29.98F FOG
$$

ARZ009-017-025-026-028-030900-
NORTHEAST ARKANSAS

CITY           SKY/WX    TMP DP  RH WIND       PRES   REMARKS
JONESBORO      CLEAR     68  68 100 CALM      30.00S
NEWPORT        CLEAR     72  71  96 S3        30.01R
WALNUT RIDGE   CLEAR     72  68  88 S3        29.99S
BLYTHEVILLE    CLEAR     71  71 100 CALM      30.00S
$$

ARZ022-023-033-042-044-030900-
CENTRAL ARKANSAS

CITY           SKY/WX    TMP DP  RH WIND       PRES   REMARKS
LITTLE ROCK    CLEAR     72  70  93 CALM      29.99S
N LITTLE ROCK    N/A     72  72 100 N2        29.99S
JACKSONVILLE   CLEAR     69  68  97 CALM      29.99S
SEARCY         CLEAR     70  69  97 CALM      30.01R FOG
HOT SPRINGS    CLEAR     70  67  90 CALM      30.00S
RUSSELLVILLE   CLEAR     70  68  93 CALM      29.99S
$$

ARZ036-030900-
EAST ARKANSAS

CITY           SKY/WX    TMP DP  RH WIND       PRES   REMARKS
WEST MEMPHIS   FOG       71  71 100 CALM      29.99S VSB 1/2
$$

ARZ050-053-066-070-073-030900-
SOUTHWEST ARKANSAS

CITY           SKY/WX    TMP DP  RH WIND       PRES   REMARKS
ARKADELPHIA    FAIR      68  68 100 CALM      29.99S
CAMDEN         FOG       68  66  94 CALM      29.98S VSB 3/4
TEXARKANA      CLEAR     72  69  90 CALM      29.98S
EL DORADO      CLEAR     70  68  93 CALM      29.98S
DE QUEEN       CLEAR     69  69 100 CALM      29.96F
$$

ARZ056-057-069-030900-
SOUTHEAST ARKANSAS

CITY           SKY/WX    TMP DP  RH WIND       PRES   REMARKS
PINE BLUFF     PTCLDY    69  69 100 CALM      29.99S
STUTTGART      CLEAR     72  66  83 E3        29.99S
MONTICELLO     CLEAR     71  71 100 CALM      29.98S

$$





USA.gov is the U.S. government's official web portal to all federal, state and local government web resources and services.